User: anonymous
Location: Caltech
(34.1382°N, 118.1253°W)
Time: 17:17:02
(UTC-07:00)
Language:

MaSat-1 - Orbit

View from above orbital plane
View from above orbital plane
View from above satellite
View from above satellite

Ground track
Ground track

The orbit data is extracted from the following two-line orbital elements,

1 38081U 12006E   14242.88311219  .00078775  49288-5  76659-3 0  3603
2 38081 069.4572 152.2831 0333549 246.1116 181.3437 15.19643540134783
Epoch (UTC): 30 August 2014 21:11:40
Eccentricity: 0.0333549
inclination: 69.4572°
perigee height: 277 km
apogee height: 736 km
right ascension of ascending node: 152.2831°
argument of perigee: 246.1116°
revolutions per day: 15.19643540
mean anomaly at epoch: 181.3437°
orbit number at epoch: 13478

The dashed part of the orbit path shows where the satellite is in the earth's shadow,  

DLR